Location: Newark
(48.1500°N, 2.9667°W)
Time: 15:19:13
(UTC+00:00)

Altair - Pass Details

Date: 04 February 2020
Orbit: 1502 x 1682 km, 47.2° (Epoch: 25 February)

Event Time Altitude Azimuth Distance (km) Brightness Sun altitude
Rises 09:45:44 0° 276° (W) 4,890 9.7 16.3°
Reaches altitude 10° 09:48:51 10° 276° (W) 3,918 9.3 16.7°
Maximum altitude 09:58:59 83° 191° (S) 1,698 8.2 17.7°
Drops below altitude 10° 10:09:10 10° 105° (ESE) 3,932 10.6 18.7°
Sets 10:12:18 0° 105° (ESE) 4,908 10.9 19.0°
